Time,TemperatureF,DewpointF,PressureIn,WindDirection,WindDirectionDegrees,WindSpeedMPH,WindSpeedGustMPH,Humidity,HourlyPrecipIn,Conditions,Clouds,dailyrainin,SoftwareType,DateUTC
2013-02-03 00:00:00,36.6,33.7,31.10,NNE,22,0.0,0.0,89,0.00,,CLR,0.00,VWS V14.00,2013-02-03 08:00:00,
2013-02-03 00:05:00,36.8,33.9,31.10,NNE,22,0.0,0.0,89,0.00,,CLR,0.00,VWS V14.00,2013-02-03 08:05:00,
2013-02-03 00:10:00,36.8,33.9,31.10,NNE,22,0.0,0.0,89,0.00,,CLR,0.00,VWS V14.00,2013-02-03 08:10:00,
2013-02-03 00:15:00,36.8,33.9,31.10,NNE,22,0.0,0.0,89,0.00,,CLR,0.00,VWS V14.00,2013-02-03 08:15:00,
2013-02-03 00:20:00,37.0,34.3,31.10,NNE,22,0.6,0.6,90,0.00,,CLR,0.00,VWS V14.00,2013-02-03 08:20:00,
2013-02-03 00:25:00,37.2,34.5,31.11,NNE,22,1.5,1.5,90,0.00,,CLR,0.00,VWS V14.00,2013-02-03 08:25:00,
2013-02-03 00:30:00,37.2,34.5,31.11,NNE,22,0.0,0.0,90,0.00,,CLR,0.00,VWS V14.00,2013-02-03 08:30:00,
2013-02-03 00:35:00,37.2,34.5,31.11,NNE,22,0.0,0.0,90,0.00,,CLR,0.00,VWS V14.00,2013-02-03 08:35:00,
2013-02-03 00:40:00,37.4,34.7,31.10,North,0,0.0,0.0,90,0.00,,CLR,0.00,VWS V14.00,2013-02-03 08:40:00,
2013-02-03 00:45:00,37.2,34.5,31.10,NE,45,0.0,0.0,90,0.00,,CLR,0.00,VWS V14.00,2013-02-03 08:45:00,
2013-02-03 00:50:00,36.6,34.0,31.10,NNE,22,0.0,0.0,90,0.00,,CLR,0.00,VWS V14.00,2013-02-03 08:50:00,
2013-02-03 00:55:00,36.5,33.8,31.10,NNE,22,0.0,0.0,90,0.00,,CLR,0.00,VWS V14.00,2013-02-03 08:55:00,
2013-02-03 01:00:00,36.3,33.7,31.10,NNE,22,0.0,0.0,90,0.00,,CLR,0.00,VWS V14.00,2013-02-03 09:00:00,
2013-02-03 01:05:00,35.9,33.3,31.10,NNE,22,0.0,0.0,90,0.00,,CLR,0.00,VWS V14.00,2013-02-03 09:05:00,
2013-02-03 01:10:00,35.7,33.1,31.10,NNE,22,0.0,0.0,90,0.00,,CLR,0.00,VWS V14.00,2013-02-03 09:10:00,
2013-02-03 01:15:00,35.7,33.1,31.10,North,0,0.0,0.0,90,0.00,,CLR,0.00,VWS V14.00,2013-02-03 09:15:00,
2013-02-03 01:20:00,35.4,32.8,31.10,North,0,0.0,0.0,90,0.00,,CLR,0.00,VWS V14.00,2013-02-03 09:20:00,
2013-02-03 01:25:00,35.6,33.0,31.11,North,0,0.0,0.0,90,0.00,,CLR,0.00,VWS V14.00,2013-02-03 09:25:00,
2013-02-03 01:30:00,35.9,33.3,31.11,North,0,0.0,0.0,90,0.00,,CLR,0.00,VWS V14.00,2013-02-03 09:30:00,
2013-02-03 01:35:00,36.3,33.7,31.11,North,0,0.0,0.0,90,0.00,,CLR,0.00,VWS V14.00,2013-02-03 09:35:00,
2013-02-03 01:40:00,35.9,33.3,31.11,North,0,0.0,0.0,90,0.00,,CLR,0.00,VWS V14.00,2013-02-03 09:40:00,
2013-02-03 01:45:00,35.7,33.1,31.11,North,0,0.0,0.0,90,0.00,,,0.00,VWS V14.00,2013-02-03 09:45:00,
2013-02-03 01:50:00,35.4,32.8,31.11,North,0,0.0,0.0,90,0.00,,,0.00,VWS V14.00,2013-02-03 09:50:00,
2013-02-03 01:55:00,35.4,32.8,31.12,North,0,0.0,0.0,90,0.00,,,0.00,VWS V14.00,2013-02-03 09:55:00,
2013-02-03 02:00:00,35.4,32.8,31.11,North,0,0.0,0.0,90,0.00,,,0.00,VWS V14.00,2013-02-03 10:00:00,
2013-02-03 02:05:00,35.4,32.8,31.11,North,0,0.0,0.0,90,0.00,,,0.00,VWS V14.00,2013-02-03 10:05:00,
2013-02-03 02:10:00,35.4,32.8,31.11,North,0,0.0,0.0,90,0.00,,,0.00,VWS V14.00,2013-02-03 10:10:00,
2013-02-03 02:15:00,35.2,32.6,31.12,North,0,0.0,0.0,90,0.00,,,0.00,VWS V14.00,2013-02-03 10:15:00,
2013-02-03 02:20:00,35.2,32.6,31.11,North,0,0.0,0.0,90,0.00,,,0.00,VWS V14.00,2013-02-03 10:20:00,
2013-02-03 02:25:00,35.4,32.8,31.11,North,0,1.3,1.3,90,0.00,,,0.00,VWS V14.00,2013-02-03 10:25:00,
2013-02-03 02:30:00,35.2,32.6,31.11,North,0,0.0,0.0,90,0.00,,,0.00,VWS V14.00,2013-02-03 10:30:00,
2013-02-03 02:35:00,34.8,32.5,31.11,NNE,22,0.0,0.0,91,0.00,,,0.00,VWS V14.00,2013-02-03 10:35:00,
2013-02-03 02:40:00,34.3,32.0,31.11,NNE,22,0.0,0.0,91,0.00,,,0.00,VWS V14.00,2013-02-03 10:40:00,
2013-02-03 02:45:00,34.1,31.5,31.11,NNE,22,0.0,0.0,90,0.00,,,0.00,VWS V14.00,2013-02-03 10:45:00,
2013-02-03 02:50:00,33.8,31.5,31.11,NNE,22,0.0,0.0,91,0.00,,,0.00,VWS V14.00,2013-02-03 10:50:00,
2013-02-03 02:55:00,33.6,31.3,31.11,NNE,22,0.0,0.0,91,0.00,,,0.00,VWS V14.00,2013-02-03 10:55:00,
2013-02-03 03:00:00,33.6,31.3,31.11,North,0,0.0,0.0,91,0.00,,,0.00,VWS V14.00,2013-02-03 11:00:00,
2013-02-03 03:05:00,33.4,31.1,31.10,NNE,22,0.0,0.0,91,0.00,,,0.00,VWS V14.00,2013-02-03 11:05:00,
2013-02-03 03:10:00,33.4,31.1,31.10,NNE,22,0.0,0.0,91,0.00,,,0.00,VWS V14.00,2013-02-03 11:10:00,
2013-02-03 03:15:00,33.6,31.3,31.11,NNE,22,0.0,0.0,91,0.00,,,0.00,VWS V14.00,2013-02-03 11:15:00,
2013-02-03 03:20:00,33.4,31.1,31.11,NNE,22,0.0,0.0,91,0.00,,,0.00,VWS V14.00,2013-02-03 11:20:00,
2013-02-03 03:25:00,33.2,30.9,31.10,North,0,0.0,0.0,91,0.00,,,0.00,VWS V14.00,2013-02-03 11:25:00,
2013-02-03 03:30:00,33.2,30.9,31.10,NNE,22,0.0,0.0,91,0.00,,,0.00,VWS V14.00,2013-02-03 11:30:00,
2013-02-03 03:35:00,33.0,30.7,31.10,NNE,22,0.0,0.0,91,0.00,,,0.00,VWS V14.00,2013-02-03 11:35:00,
2013-02-03 03:40:00,32.9,30.6,31.10,North,0,0.0,0.0,91,0.00,,,0.00,VWS V14.00,2013-02-03 11:40:00,
2013-02-03 03:45:00,32.7,30.1,31.11,NNE,22,0.0,0.0,90,0.00,,,0.00,VWS V14.00,2013-02-03 11:45:00,
2013-02-03 03:50:00,32.7,30.4,31.11,NNE,22,0.0,0.0,91,0.00,,,0.00,VWS V14.00,2013-02-03 11:50:00,
2013-02-03 03:55:00,33.4,31.1,31.11,NNE,22,0.0,0.0,91,0.00,,,0.00,VWS V14.00,2013-02-03 11:55:00,
2013-02-03 04:00:00,33.6,31.3,31.10,NNE,22,0.0,0.0,91,0.00,,,0.00,VWS V14.00,2013-02-03 12:00:00,
2013-02-03 04:05:00,33.9,31.6,31.10,NNE,22,0.0,0.0,91,0.00,,,0.00,VWS V14.00,2013-02-03 12:05:00,
2013-02-03 04:10:00,33.9,31.6,31.10,NNE,22,0.0,0.0,91,0.00,,,0.00,VWS V14.00,2013-02-03 12:10:00,
2013-02-03 04:15:00,34.1,31.8,31.10,NNE,22,0.0,0.0,91,0.00,,,0.00,VWS V14.00,2013-02-03 12:15:00,
2013-02-03 04:20:00,34.3,32.0,31.11,NNE,22,0.0,0.0,91,0.00,,,0.00,VWS V14.00,2013-02-03 12:20:00,
2013-02-03 04:25:00,34.3,32.0,31.11,NNE,22,0.0,0.0,91,0.00,,,0.00,VWS V14.00,2013-02-03 12:25:00,
2013-02-03 04:30:00,34.3,32.0,31.11,NNE,22,0.0,0.0,91,0.00,,,0.00,VWS V14.00,2013-02-03 12:30:00,
2013-02-03 04:35:00,34.3,32.0,31.10,NNE,22,0.0,0.0,91,0.00,,,0.00,VWS V14.00,2013-02-03 12:35:00,
2013-02-03 04:40:00,34.5,32.2,31.10,NNE,22,0.0,0.0,91,0.00,,,0.00,VWS V14.00,2013-02-03 12:40:00,
2013-02-03 04:45:00,34.7,32.3,31.11,NNE,22,0.0,0.0,91,0.00,,,0.00,VWS V14.00,2013-02-03 12:45:00,
2013-02-03 04:50:00,34.8,32.5,31.12,NNE,22,0.0,0.0,91,0.00,,,0.00,VWS V14.00,2013-02-03 12:50:00,
2013-02-03 04:55:00,34.8,32.5,31.12,North,0,3.5,3.5,91,0.00,,,0.00,VWS V14.00,2013-02-03 12:55:00,
2013-02-03 05:00:00,34.8,32.5,31.12,North,0,0.0,0.0,91,0.00,,,0.00,VWS V14.00,2013-02-03 13:00:00,
2013-02-03 05:05:00,34.8,32.5,31.12,North,0,0.0,0.0,91,0.00,,,0.00,VWS V14.00,2013-02-03 13:05:00,
2013-02-03 05:10:00,34.8,32.5,31.12,North,0,0.0,0.0,91,0.00,,,0.00,VWS V14.00,2013-02-03 13:10:00,
2013-02-03 05:15:00,34.8,32.5,31.12,North,0,0.0,0.0,91,0.00,,,0.00,VWS V14.00,2013-02-03 13:15:00,
2013-02-03 05:20:00,34.8,32.5,31.12,North,0,0.0,0.0,91,0.00,,,0.00,VWS V14.00,2013-02-03 13:20:00,
2013-02-03 05:25:00,35.0,32.6,31.12,North,0,0.0,0.0,91,0.00,,OVC020,0.00,VWS V14.00,2013-02-03 13:25:00,
2013-02-03 05:30:00,35.2,32.8,31.12,North,0,0.0,0.0,91,0.00,,OVC020,0.00,VWS V14.00,2013-02-03 13:30:00,
2013-02-03 05:35:00,35.2,32.8,31.12,North,0,0.0,0.0,91,0.00,,OVC020,0.00,VWS V14.00,2013-02-03 13:35:00,
2013-02-03 05:40:00,35.2,32.8,31.12,North,0,0.0,0.0,91,0.00,,OVC020,0.00,VWS V14.00,2013-02-03 13:40:00,
2013-02-03 05:45:00,35.4,33.0,31.12,North,0,0.0,0.0,91,0.00,,OVC028,0.00,VWS V14.00,2013-02-03 13:45:00,
2013-02-03 05:50:00,35.4,33.0,31.12,North,0,0.0,0.0,91,0.00,,OVC028,0.00,VWS V14.00,2013-02-03 13:50:00,
2013-02-03 05:55:00,35.4,33.0,31.12,North,0,0.0,0.0,91,0.00,,OVC028,0.00,VWS V14.00,2013-02-03 13:55:00,
2013-02-03 06:00:00,35.6,33.2,31.12,North,0,0.0,0.0,91,0.00,,OVC028,0.00,VWS V14.00,2013-02-03 14:00:00,
2013-02-03 06:05:00,35.7,33.3,31.12,North,0,0.0,0.0,91,0.00,,OVC028,0.00,VWS V14.00,2013-02-03 14:05:00,
2013-02-03 06:10:00,35.7,33.3,31.12,WNW,292,0.0,0.0,91,0.00,,OVC028,0.00,VWS V14.00,2013-02-03 14:10:00,
2013-02-03 06:15:00,35.7,33.3,31.12,West,270,2.6,2.6,91,0.00,,OVC028,0.00,VWS V14.00,2013-02-03 14:15:00,
2013-02-03 06:20:00,35.7,33.3,31.13,West,270,0.4,0.4,91,0.00,,OVC028,0.00,VWS V14.00,2013-02-03 14:20:00,
2013-02-03 06:25:00,35.7,33.3,31.13,West,270,0.0,0.0,91,0.00,,OVC028,0.00,VWS V14.00,2013-02-03 14:25:00,
2013-02-03 06:30:00,35.7,33.3,31.13,West,270,0.0,0.0,91,0.00,,OVC028,0.00,VWS V14.00,2013-02-03 14:30:00,
2013-02-03 06:35:00,36.1,34.0,31.12,SW,225,4.9,4.9,92,0.00,,OVC028,0.00,VWS V14.00,2013-02-03 14:35:00,
2013-02-03 06:40:00,36.3,33.9,31.12,SW,225,4.0,4.0,91,0.00,,OVC028,0.00,VWS V14.00,2013-02-03 14:40:00,
2013-02-03 06:45:00,36.6,34.5,31.12,SSW,202,0.0,0.0,92,0.00,,OVC032,0.00,VWS V14.00,2013-02-03 14:45:00,
2013-02-03 06:50:00,36.8,34.7,31.12,SSW,202,0.0,2.4,92,0.00,,OVC032,0.00,VWS V14.00,2013-02-03 14:50:00,
2013-02-03 06:55:00,37.0,34.9,31.12,SSW,202,0.0,0.0,92,0.00,,OVC032,0.00,VWS V14.00,2013-02-03 14:55:00,
2013-02-03 07:00:00,37.0,34.9,31.12,SSW,202,0.0,5.8,92,0.00,,OVC032,0.00,VWS V14.00,2013-02-03 15:00:00,
2013-02-03 07:05:00,37.0,34.9,31.12,SSW,202,0.0,0.0,92,0.00,,OVC032,0.00,VWS V14.00,2013-02-03 15:05:00,
2013-02-03 07:10:00,37.2,35.1,31.12,SSW,202,0.0,0.0,92,0.00,,OVC032,0.00,VWS V14.00,2013-02-03 15:10:00,
2013-02-03 07:15:00,37.2,35.1,31.12,SSW,202,0.0,0.0,92,0.00,,OVC032,0.00,VWS V14.00,2013-02-03 15:15:00,
2013-02-03 07:20:00,37.2,35.1,31.13,SSW,202,0.0,0.0,92,0.00,,OVC032,0.00,VWS V14.00,2013-02-03 15:20:00,
2013-02-03 07:25:00,37.2,35.1,31.13,SSW,202,0.0,0.0,92,0.00,,OVC032,0.00,VWS V14.00,2013-02-03 15:25:00,
2013-02-03 07:30:00,37.2,35.1,31.13,SSW,202,0.0,0.0,92,0.00,,OVC032,0.00,VWS V14.00,2013-02-03 15:30:00,
2013-02-03 07:35:00,37.2,35.1,31.14,SSW,202,0.0,0.0,92,0.00,,OVC032,0.00,VWS V14.00,2013-02-03 15:35:00,
2013-02-03 07:40:00,37.2,35.1,31.14,SSW,202,0.0,0.0,92,0.00,,OVC032,0.00,VWS V14.00,2013-02-03 15:40:00,
2013-02-03 07:45:00,37.2,35.1,31.14,SSW,202,0.0,0.0,92,0.00,,,0.00,VWS V14.00,2013-02-03 15:45:00,
2013-02-03 07:50:00,37.2,35.1,31.15,North,0,0.0,0.0,92,0.00,,,0.00,VWS V14.00,2013-02-03 15:50:00,
2013-02-03 07:55:00,37.4,35.3,31.15,North,0,0.0,0.0,92,0.00,,,0.00,VWS V14.00,2013-02-03 15:55:00,
2013-02-03 08:00:00,37.5,35.4,31.15,SSW,202,0.0,0.0,92,0.00,,,0.00,VWS V14.00,2013-02-03 16:00:00,
2013-02-03 08:05:00,37.4,35.3,31.15,SSW,202,0.0,0.0,92,0.00,,,0.00,VWS V14.00,2013-02-03 16:05:00,
2013-02-03 08:10:00,37.2,35.1,31.14,SSW,202,0.0,0.0,92,0.00,,,0.00,VWS V14.00,2013-02-03 16:10:00,
2013-02-03 08:15:00,37.2,35.1,31.14,SSW,202,0.0,0.0,92,0.00,,,0.00,VWS V14.00,2013-02-03 16:15:00,
2013-02-03 08:20:00,37.2,35.1,31.14,SSW,202,0.0,0.0,92,0.00,,,0.00,VWS V14.00,2013-02-03 16:20:00,
2013-02-03 08:25:00,37.2,35.1,31.14,SSW,202,0.0,0.0,92,0.00,,,0.00,VWS V14.00,2013-02-03 16:25:00,
2013-02-03 08:30:00,37.2,35.1,31.14,SSW,202,0.0,0.0,92,0.00,,,0.00,VWS V14.00,2013-02-03 16:30:00,
2013-02-03 08:35:00,37.5,35.4,31.14,SSW,202,0.0,0.0,92,0.00,,,0.00,VWS V14.00,2013-02-03 16:35:00,
2013-02-03 08:40:00,37.5,35.4,31.14,SSW,202,0.0,0.0,92,0.00,,,0.00,VWS V14.00,2013-02-03 16:40:00,
2013-02-03 08:45:00,37.7,35.6,31.14,SSW,202,0.0,0.0,92,0.00,,,0.00,VWS V14.00,2013-02-03 16:45:00,
2013-02-03 08:50:00,37.9,35.8,31.15,SSW,202,0.0,0.0,92,0.00,,,0.00,VWS V14.00,2013-02-03 16:50:00,
2013-02-03 08:55:00,37.9,35.8,31.15,SSW,202,0.0,0.0,92,0.00,,,0.00,VWS V14.00,2013-02-03 16:55:00,
2013-02-03 09:00:00,37.9,35.8,31.15,SSW,202,0.0,0.0,92,0.00,,,0.00,VWS V14.00,2013-02-03 17:00:00,
2013-02-03 09:05:00,37.9,35.8,31.15,SSW,202,0.0,0.0,92,0.00,,,0.00,VWS V14.00,2013-02-03 17:05:00,
2013-02-03 09:10:00,37.9,35.8,31.15,SSW,202,0.0,0.0,92,0.00,,,0.00,VWS V14.00,2013-02-03 17:10:00,
2013-02-03 09:15:00,38.1,36.0,31.15,North,0,0.0,0.0,92,0.00,,,0.00,VWS V14.00,2013-02-03 17:15:00,
2013-02-03 09:20:00,38.3,36.2,31.15,SSW,202,0.0,0.0,92,0.00,,,0.00,VWS V14.00,2013-02-03 17:20:00,
2013-02-03 09:25:00,38.4,36.3,31.15,North,0,0.0,0.0,92,0.00,,,0.00,VWS V14.00,2013-02-03 17:25:00,
2013-02-03 09:30:00,38.4,36.3,31.15,SSW,202,0.0,0.0,92,0.00,,,0.00,VWS V14.00,2013-02-03 17:30:00,
2013-02-03 09:35:00,38.6,36.5,31.15,SSW,202,0.0,0.0,92,0.00,,,0.00,VWS V14.00,2013-02-03 17:35:00,
2013-02-03 09:40:00,38.8,36.7,31.15,SSW,202,0.0,0.0,92,0.00,,,0.00,VWS V14.00,2013-02-03 17:40:00,
2013-02-03 09:45:00,38.8,36.7,31.15,SSW,202,0.0,0.0,92,0.00,,,0.00,VWS V14.00,2013-02-03 17:45:00,
2013-02-03 09:50:00,38.8,36.7,31.15,SSW,202,0.0,0.0,92,0.00,,,0.00,VWS V14.00,2013-02-03 17:50:00,
2013-02-03 09:55:00,39.0,36.9,31.16,SSW,202,0.0,0.0,92,0.00,,,0.00,VWS V14.00,2013-02-03 17:55:00,
2013-02-03 10:00:00,39.0,36.9,31.15,North,0,0.0,0.0,92,0.00,,,0.00,VWS V14.00,2013-02-03 18:00:00,
2013-02-03 10:05:00,39.0,36.9,31.15,SSW,202,0.0,0.0,92,0.00,,,0.00,VWS V14.00,2013-02-03 18:05:00,
2013-02-03 10:10:00,39.2,37.1,31.15,SSW,202,0.0,0.0,92,0.00,,,0.00,VWS V14.00,2013-02-03 18:10:00,
2013-02-03 10:15:00,39.3,37.2,31.16,SSW,202,0.0,0.0,92,0.00,,,0.00,VWS V14.00,2013-02-03 18:15:00,
2013-02-03 10:20:00,39.5,37.4,31.15,SSW,202,0.0,0.0,92,0.00,,,0.00,VWS V14.00,2013-02-03 18:20:00,
2013-02-03 10:25:00,39.7,37.6,31.16,SSW,202,0.0,0.0,92,0.00,,,0.00,VWS V14.00,2013-02-03 18:25:00,
2013-02-03 10:30:00,39.7,37.6,31.16,SSW,202,0.0,0.0,92,0.00,,,0.00,VWS V14.00,2013-02-03 18:30:00,
2013-02-03 10:35:00,39.9,37.8,31.16,SSW,202,0.0,0.0,92,0.00,,,0.00,VWS V14.00,2013-02-03 18:35:00,
2013-02-03 10:40:00,39.9,37.8,31.16,SSW,202,0.0,0.0,92,0.00,,,0.00,VWS V14.00,2013-02-03 18:40:00,
2013-02-03 10:45:00,39.9,37.8,31.16,SSW,202,0.0,0.0,92,0.00,,OVC010,0.00,VWS V14.00,2013-02-03 18:45:00,
2013-02-03 10:50:00,40.2,38.1,31.16,SSW,202,0.0,0.0,92,0.00,,OVC010,0.00,VWS V14.00,2013-02-03 18:50:00,
2013-02-03 10:55:00,40.2,38.1,31.16,SSW,202,0.0,0.0,92,0.00,,OVC010,0.00,VWS V14.00,2013-02-03 18:55:00,
2013-02-03 11:00:00,40.2,38.1,31.16,SSW,202,0.0,0.0,92,0.00,,OVC010,0.00,VWS V14.00,2013-02-03 19:00:00,
2013-02-03 11:05:00,40.2,38.1,31.15,SSW,202,0.0,0.0,92,0.00,,OVC010,0.00,VWS V14.00,2013-02-03 19:05:00,
2013-02-03 11:10:00,40.4,38.3,31.15,SSW,202,0.0,0.0,92,0.00,,OVC010,0.00,VWS V14.00,2013-02-03 19:10:00,
2013-02-03 11:15:00,40.6,38.5,31.15,SSW,202,0.0,0.0,92,0.00,,OVC010,0.00,VWS V14.00,2013-02-03 19:15:00,
2013-02-03 11:20:00,40.8,38.7,31.15,SSW,202,0.0,0.0,92,0.00,,OVC010,0.00,VWS V14.00,2013-02-03 19:20:00,
2013-02-03 11:25:00,40.8,38.7,31.15,SSW,202,0.0,0.0,92,0.00,,OVC010,0.00,VWS V14.00,2013-02-03 19:25:00,
2013-02-03 11:30:00,40.8,38.7,31.14,SSW,202,0.0,0.0,92,0.00,,OVC010,0.00,VWS V14.00,2013-02-03 19:30:00,
2013-02-03 11:35:00,41.0,38.9,31.14,North,0,0.0,0.0,92,0.00,,OVC010,0.00,VWS V14.00,2013-02-03 19:35:00,
2013-02-03 11:40:00,41.3,39.2,31.13,SSW,202,0.0,0.0,92,0.00,,OVC010,0.00,VWS V14.00,2013-02-03 19:40:00,
2013-02-03 11:45:00,41.3,39.2,31.13,SSW,202,0.0,0.0,92,0.00,,,0.00,VWS V14.00,2013-02-03 19:45:00,
2013-02-03 11:50:00,41.3,39.2,31.13,SSW,202,0.0,0.0,92,0.00,,,0.00,VWS V14.00,2013-02-03 19:50:00,
2013-02-03 11:55:00,41.5,39.3,31.13,SSW,202,0.0,0.0,92,0.00,,,0.00,VWS V14.00,2013-02-03 19:55:00,
2013-02-03 12:00:00,41.5,39.3,31.12,SSW,202,0.0,0.0,92,0.00,,,0.00,VWS V14.00,2013-02-03 20:00:00,
2013-02-03 12:05:00,41.5,39.3,31.12,North,0,0.0,0.0,92,0.00,,,0.00,VWS V14.00,2013-02-03 20:05:00,
2013-02-03 12:10:00,41.5,39.3,31.12,SSW,202,0.0,0.0,92,0.00,,,0.00,VWS V14.00,2013-02-03 20:10:00,
2013-02-03 12:15:00,41.7,39.5,31.12,SSW,202,0.0,0.0,92,0.00,,,0.00,VWS V14.00,2013-02-03 20:15:00,
2013-02-03 12:20:00,41.7,39.3,31.12,SSW,202,0.0,0.0,91,0.00,,,0.00,VWS V14.00,2013-02-03 20:20:00,
2013-02-03 12:25:00,41.9,39.5,31.12,North,0,0.0,0.0,91,0.00,,,0.00,VWS V14.00,2013-02-03 20:25:00,
2013-02-03 12:30:00,42.0,39.6,31.12,SSW,202,0.0,0.0,91,0.00,,,0.00,VWS V14.00,2013-02-03 20:30:00,
2013-02-03 12:35:00,42.0,39.6,31.12,SSW,202,0.0,0.0,91,0.00,,,0.00,VWS V14.00,2013-02-03 20:35:00,
2013-02-03 12:40:00,42.0,39.6,31.12,SSW,202,0.0,0.0,91,0.00,,,0.00,VWS V14.00,2013-02-03 20:40:00,
2013-02-03 12:45:00,42.6,40.2,31.12,SSW,202,0.0,0.0,91,0.00,,,0.00,VWS V14.00,2013-02-03 20:45:00,
2013-02-03 12:50:00,42.6,40.2,31.12,SSW,202,0.0,0.0,91,0.00,,,0.00,VWS V14.00,2013-02-03 20:50:00,
2013-02-03 12:55:00,42.9,40.5,31.11,SSW,202,0.0,0.0,91,0.00,,,0.00,VWS V14.00,2013-02-03 20:55:00,
2013-02-03 13:00:00,43.3,40.8,31.10,SSW,202,0.0,0.0,91,0.00,,,0.00,VWS V14.00,2013-02-03 21:00:00,
2013-02-03 13:05:00,43.5,41.0,31.10,North,0,0.0,0.0,91,0.00,,,0.00,VWS V14.00,2013-02-03 21:05:00,
2013-02-03 13:10:00,43.7,41.2,31.10,SSW,202,0.0,0.0,91,0.00,,,0.00,VWS V14.00,2013-02-03 21:10:00,
2013-02-03 13:15:00,43.7,41.2,31.10,SSW,202,0.0,0.0,91,0.00,,,0.00,VWS V14.00,2013-02-03 21:15:00,
2013-02-03 13:20:00,43.7,41.2,31.10,SSW,202,0.0,0.0,91,0.00,,,0.00,VWS V14.00,2013-02-03 21:20:00,
2013-02-03 13:25:00,43.8,41.1,31.10,SSW,202,0.0,0.0,90,0.00,,,0.00,VWS V14.00,2013-02-03 21:25:00,
2013-02-03 13:30:00,43.8,41.1,31.10,North,0,0.0,0.0,90,0.00,,,0.00,VWS V14.00,2013-02-03 21:30:00,
2013-02-03 13:35:00,44.0,41.3,31.10,SSW,202,0.0,0.0,90,0.00,,,0.00,VWS V14.00,2013-02-03 21:35:00,
2013-02-03 13:40:00,43.7,41.0,31.09,SSW,202,0.0,0.0,90,0.00,,,0.00,VWS V14.00,2013-02-03 21:40:00,
2013-02-03 13:45:00,43.3,40.3,31.10,SSW,202,0.0,0.0,89,0.00,,,0.00,VWS V14.00,2013-02-03 21:45:00,
2013-02-03 13:50:00,43.5,40.5,31.10,SSW,202,0.0,0.0,89,0.00,,,0.00,VWS V14.00,2013-02-03 21:50:00,
2013-02-03 13:55:00,43.5,40.5,31.10,SSW,202,0.0,0.0,89,0.00,,,0.00,VWS V14.00,2013-02-03 21:55:00,
2013-02-03 14:00:00,43.5,40.5,31.10,SSW,202,0.0,0.0,89,0.00,,,0.00,VWS V14.00,2013-02-03 22:00:00,
2013-02-03 14:05:00,43.5,40.5,31.10,SSW,202,0.0,0.0,89,0.00,,,0.00,VWS V14.00,2013-02-03 22:05:00,
2013-02-03 14:10:00,43.5,40.5,31.10,SSW,202,0.0,0.0,89,0.00,,,0.00,VWS V14.00,2013-02-03 22:10:00,
2013-02-03 14:15:00,43.7,40.7,31.09,SSW,202,0.0,0.0,89,0.00,,,0.00,VWS V14.00,2013-02-03 22:15:00,
2013-02-03 14:20:00,43.8,40.8,31.09,SSW,202,0.0,0.0,89,0.00,,,0.00,VWS V14.00,2013-02-03 22:20:00,
2013-02-03 14:25:00,43.8,40.8,31.10,SSW,202,0.0,0.0,89,0.00,,,0.00,VWS V14.00,2013-02-03 22:25:00,
2013-02-03 14:30:00,43.7,40.7,31.09,SSW,202,0.0,0.0,89,0.00,,,0.00,VWS V14.00,2013-02-03 22:30:00,
2013-02-03 14:35:00,43.7,40.7,31.09,SSW,202,0.0,0.0,89,0.00,,,0.00,VWS V14.00,2013-02-03 22:35:00,
2013-02-03 14:40:00,43.7,40.4,31.09,SSW,202,0.0,0.0,88,0.00,,,0.00,VWS V14.00,2013-02-03 22:40:00,
2013-02-03 14:45:00,43.8,40.5,31.08,SSW,202,0.0,0.0,88,0.00,,,0.00,VWS V14.00,2013-02-03 22:45:00,
2013-02-03 14:50:00,44.0,40.7,31.08,SSW,202,0.0,0.0,88,0.00,,,0.00,VWS V14.00,2013-02-03 22:50:00,
2013-02-03 14:55:00,44.4,41.1,31.09,SSW,202,0.0,0.0,88,0.00,,,0.00,VWS V14.00,2013-02-03 22:55:00,
2013-02-03 15:00:00,44.4,41.1,31.08,SSW,202,0.0,0.0,88,0.00,,,0.00,VWS V14.00,2013-02-03 23:00:00,
2013-02-03 15:05:00,44.6,41.3,31.08,SSW,202,0.0,0.0,88,0.00,,,0.00,VWS V14.00,2013-02-03 23:05:00,
2013-02-03 15:10:00,44.4,41.1,31.08,North,0,0.0,0.0,88,0.00,,,0.00,VWS V14.00,2013-02-03 23:10:00,
2013-02-03 15:15:00,44.4,40.8,31.09,SSW,202,0.0,0.0,87,0.00,,,0.00,VWS V14.00,2013-02-03 23:15:00,
2013-02-03 15:20:00,44.2,40.6,31.08,SSW,202,0.0,0.0,87,0.00,,,0.00,VWS V14.00,2013-02-03 23:20:00,
2013-02-03 15:25:00,44.0,40.4,31.09,North,0,0.0,0.0,87,0.00,,,0.00,VWS V14.00,2013-02-03 23:25:00,
2013-02-03 15:30:00,43.8,40.2,31.09,North,0,0.0,0.0,87,0.00,,,0.00,VWS V14.00,2013-02-03 23:30:00,
2013-02-03 15:35:00,43.8,40.2,31.08,SSW,202,0.0,0.0,87,0.00,,,0.00,VWS V14.00,2013-02-03 23:35:00,
2013-02-03 15:40:00,43.8,40.2,31.08,SSW,202,0.0,0.0,87,0.00,,,0.00,VWS V14.00,2013-02-03 23:40:00,
2013-02-03 15:45:00,43.8,40.2,31.09,SSW,202,0.0,0.0,87,0.00,,,0.00,VWS V14.00,2013-02-03 23:45:00,
2013-02-03 15:50:00,43.8,40.2,31.08,SSW,202,0.0,0.0,87,0.00,,,0.00,VWS V14.00,2013-02-03 23:50:00,
2013-02-03 15:55:00,43.8,40.2,31.08,SSW,202,0.0,0.0,87,0.00,,,0.00,VWS V14.00,2013-02-03 23:55:00,
2013-02-03 16:00:00,43.8,40.2,31.08,SSW,202,0.0,0.0,87,0.00,,,0.00,VWS V14.00,2013-02-04 00:00:00,
2013-02-03 16:05:00,43.8,40.2,31.08,SSW,202,0.0,0.0,87,0.00,,,0.00,VWS V14.00,2013-02-04 00:05:00,
2013-02-03 16:10:00,43.8,40.2,31.08,SSW,202,0.0,0.0,87,0.00,,,0.00,VWS V14.00,2013-02-04 00:10:00,
2013-02-03 16:15:00,43.8,40.2,31.08,North,0,0.0,0.0,87,0.00,,,0.00,VWS V14.00,2013-02-04 00:15:00,
2013-02-03 16:20:00,43.8,40.2,31.08,SSW,202,0.0,0.0,87,0.00,,,0.00,VWS V14.00,2013-02-04 00:20:00,
2013-02-03 16:25:00,43.7,40.4,31.08,SSW,202,0.0,0.0,88,0.00,,,0.00,VWS V14.00,2013-02-04 00:25:00,
2013-02-03 16:30:00,43.5,40.2,31.08,SSW,202,0.0,0.0,88,0.00,,,0.00,VWS V14.00,2013-02-04 00:30:00,
2013-02-03 16:35:00,43.5,40.2,31.08,SSW,202,0.0,0.0,88,0.00,,,0.00,VWS V14.00,2013-02-04 00:35:00,
2013-02-03 16:40:00,43.3,40.0,31.09,SSW,202,0.0,0.0,88,0.00,,,0.00,VWS V14.00,2013-02-04 00:40:00,
2013-02-03 16:45:00,43.1,39.8,31.09,SSW,202,0.0,0.0,88,0.00,,,0.00,VWS V14.00,2013-02-04 00:45:00,
2013-02-03 16:50:00,43.3,40.0,31.09,SSW,202,0.0,0.0,88,0.00,,,0.00,VWS V14.00,2013-02-04 00:50:00,
2013-02-03 16:55:00,43.1,39.8,31.09,North,0,0.0,0.0,88,0.00,,,0.00,VWS V14.00,2013-02-04 00:55:00,
2013-02-03 17:00:00,42.9,39.6,31.09,SSW,202,0.0,0.0,88,0.00,,,0.00,VWS V14.00,2013-02-04 01:00:00,
2013-02-03 17:05:00,42.9,39.6,31.09,North,0,0.0,0.0,88,0.00,,,0.00,VWS V14.00,2013-02-04 01:05:00,
2013-02-03 17:10:00,42.9,39.6,31.09,North,0,0.0,0.0,88,0.00,,,0.00,VWS V14.00,2013-02-04 01:10:00,
2013-02-03 17:15:00,42.6,39.3,31.08,North,0,0.0,0.0,88,0.00,,,0.00,VWS V14.00,2013-02-04 01:15:00,
2013-02-03 17:20:00,42.6,39.3,31.09,SSW,202,0.0,0.0,88,0.00,,,0.00,VWS V14.00,2013-02-04 01:20:00,
2013-02-03 17:25:00,42.6,39.3,31.09,SSW,202,0.0,0.0,88,0.00,,,0.00,VWS V14.00,2013-02-04 01:25:00,
2013-02-03 17:30:00,42.6,39.3,31.09,SSW,202,0.0,0.0,88,0.00,,,0.00,VWS V14.00,2013-02-04 01:30:00,
2013-02-03 17:35:00,42.6,39.3,31.09,SSW,202,0.0,0.0,88,0.00,,,0.00,VWS V14.00,2013-02-04 01:35:00,
2013-02-03 17:40:00,42.6,39.6,31.09,SSW,202,0.0,0.0,89,0.00,,,0.00,VWS V14.00,2013-02-04 01:40:00,
2013-02-03 17:45:00,42.4,39.4,31.09,SSW,202,0.0,0.0,89,0.00,,,0.00,VWS V14.00,2013-02-04 01:45:00,
2013-02-03 17:50:00,42.4,39.4,31.09,SSW,202,0.0,0.0,89,0.00,,,0.00,VWS V14.00,2013-02-04 01:50:00,
2013-02-03 17:55:00,42.2,39.2,31.09,North,0,0.0,0.0,89,0.00,,,0.00,VWS V14.00,2013-02-04 01:55:00,
2013-02-03 18:00:00,42.0,39.0,31.09,SSW,202,0.0,0.0,89,0.00,,,0.00,VWS V14.00,2013-02-04 02:00:00,
2013-02-03 18:05:00,42.2,39.2,31.08,SSW,202,0.0,0.0,89,0.00,,,0.00,VWS V14.00,2013-02-04 02:05:00,
2013-02-03 18:10:00,42.2,39.2,31.08,SSW,202,0.0,0.0,89,0.00,,,0.00,VWS V14.00,2013-02-04 02:10:00,
2013-02-03 18:15:00,42.0,39.0,31.08,SSW,202,0.0,0.0,89,0.00,,,0.00,VWS V14.00,2013-02-04 02:15:00,
2013-02-03 18:20:00,42.0,39.0,31.08,SSW,202,0.0,0.0,89,0.00,,,0.00,VWS V14.00,2013-02-04 02:20:00,
2013-02-03 18:25:00,42.0,39.0,31.07,SSW,202,0.0,0.0,89,0.00,,,0.00,VWS V14.00,2013-02-04 02:25:00,
2013-02-03 18:30:00,42.0,39.0,31.08,SSW,202,0.0,0.0,89,0.00,,,0.00,VWS V14.00,2013-02-04 02:30:00,
2013-02-03 18:35:00,42.0,39.0,31.07,SSW,202,0.0,0.0,89,0.00,,,0.00,VWS V14.00,2013-02-04 02:35:00,
2013-02-03 18:40:00,42.0,39.0,31.08,SSW,202,0.0,0.0,89,0.00,,,0.00,VWS V14.00,2013-02-04 02:40:00,
2013-02-03 18:45:00,42.0,39.0,31.08,SSW,202,0.0,0.0,89,0.00,,,0.00,VWS V14.00,2013-02-04 02:45:00,
2013-02-03 18:50:00,42.2,39.2,31.08,SSW,202,0.0,0.0,89,0.00,,,0.00,VWS V14.00,2013-02-04 02:50:00,
2013-02-03 18:55:00,42.4,39.4,31.08,SSW,202,0.0,0.0,89,0.00,,,0.00,VWS V14.00,2013-02-04 02:55:00,
2013-02-03 19:00:00,42.4,39.7,31.08,SSW,202,0.0,0.0,90,0.00,,,0.00,VWS V14.00,2013-02-04 03:00:00,
2013-02-03 19:05:00,42.4,39.7,31.08,SSW,202,0.0,0.0,90,0.00,,,0.00,VWS V14.00,2013-02-04 03:05:00,
2013-02-03 19:10:00,42.4,39.7,31.08,SSW,202,0.0,0.0,90,0.00,,,0.00,VWS V14.00,2013-02-04 03:10:00,
2013-02-03 19:15:00,42.4,39.7,31.07,SSW,202,0.0,0.0,90,0.00,,,0.00,VWS V14.00,2013-02-04 03:15:00,
2013-02-03 19:20:00,42.4,39.7,31.07,SSW,202,0.0,0.0,90,0.00,,,0.00,VWS V14.00,2013-02-04 03:20:00,
2013-02-03 19:25:00,42.4,39.7,31.07,SSW,202,0.0,0.0,90,0.00,,,0.00,VWS V14.00,2013-02-04 03:25:00,
2013-02-03 19:30:00,42.4,39.7,31.07,SSW,202,0.0,0.0,90,0.00,,,0.00,VWS V14.00,2013-02-04 03:30:00,
2013-02-03 19:35:00,42.4,39.7,31.07,SSW,202,0.0,0.0,90,0.00,,,0.00,VWS V14.00,2013-02-04 03:35:00,
2013-02-03 19:40:00,42.4,39.7,31.07,SSW,202,0.0,0.0,90,0.00,,,0.00,VWS V14.00,2013-02-04 03:40:00,
2013-02-03 19:45:00,42.2,39.5,31.07,SSW,202,0.0,0.0,90,0.00,,,0.00,VWS V14.00,2013-02-04 03:45:00,
2013-02-03 19:50:00,42.0,39.3,31.07,North,0,0.0,0.0,90,0.00,,,0.00,VWS V14.00,2013-02-04 03:50:00,
2013-02-03 19:55:00,42.0,39.3,31.07,SSW,202,0.0,0.0,90,0.00,,,0.00,VWS V14.00,2013-02-04 03:55:00,
2013-02-03 20:00:00,41.9,39.2,31.07,North,0,0.0,0.0,90,0.00,,,0.00,VWS V14.00,2013-02-04 04:00:00,
2013-02-03 20:05:00,41.7,39.0,31.07,SSW,202,0.0,0.0,90,0.00,,,0.00,VWS V14.00,2013-02-04 04:05:00,
2013-02-03 20:10:00,41.7,39.0,31.07,SSW,202,0.0,0.0,90,0.00,,,0.00,VWS V14.00,2013-02-04 04:10:00,
2013-02-03 20:15:00,41.7,39.0,31.06,North,0,0.0,0.0,90,0.00,,,0.00,VWS V14.00,2013-02-04 04:15:00,
2013-02-03 20:20:00,41.7,39.0,31.06,SSW,202,0.0,0.0,90,0.00,,,0.00,VWS V14.00,2013-02-04 04:20:00,
2013-02-03 20:25:00,41.7,39.0,31.06,SSW,202,0.0,0.0,90,0.00,,,0.00,VWS V14.00,2013-02-04 04:25:00,
2013-02-03 20:30:00,41.7,39.0,31.06,SSW,202,0.0,0.0,90,0.00,,,0.00,VWS V14.00,2013-02-04 04:30:00,
2013-02-03 20:35:00,41.7,39.0,31.06,SSW,202,0.0,0.0,90,0.00,,,0.00,VWS V14.00,2013-02-04 04:35:00,
2013-02-03 20:40:00,41.7,39.0,31.06,SSW,202,0.0,0.0,90,0.00,,,0.00,VWS V14.00,2013-02-04 04:40:00,
2013-02-03 20:45:00,41.7,39.0,31.06,SSW,202,0.0,0.0,90,0.00,,,0.00,VWS V14.00,2013-02-04 04:45:00,
2013-02-03 20:50:00,41.7,39.0,31.07,SSW,202,0.0,0.0,90,0.00,,,0.00,VWS V14.00,2013-02-04 04:50:00,
2013-02-03 20:55:00,41.7,39.0,31.07,SSW,202,0.0,0.0,90,0.00,,,0.00,VWS V14.00,2013-02-04 04:55:00,
2013-02-03 21:00:00,41.9,39.2,31.07,SSW,202,0.0,0.0,90,0.00,,,0.00,VWS V14.00,2013-02-04 05:00:00,
2013-02-03 21:01:00,41.9,39.2,31.07,SSW,202,0.0,0.0,90,0.00,,,0.00,VWS V14.00,2013-02-04 05:01:00,
2013-02-03 21:03:00,41.9,39.2,31.07,SSW,202,0.0,0.0,90,0.00,,,0.00,VWS V14.00,2013-02-04 05:03:00,
2013-02-03 21:08:00,42.0,39.3,31.07,SSW,202,0.0,0.0,90,0.00,,,0.00,VWS V14.00,2013-02-04 05:08:00,
2013-02-03 21:13:00,42.0,39.3,31.07,SSW,202,0.0,0.0,90,0.00,,,0.00,VWS V14.00,2013-02-04 05:13:00,
2013-02-03 21:18:00,42.0,39.3,31.07,SSW,202,0.0,0.0,90,0.00,,,0.00,VWS V14.00,2013-02-04 05:18:00,
2013-02-03 21:23:00,42.0,39.3,31.07,SSW,202,0.0,0.0,90,0.00,,,0.00,VWS V14.00,2013-02-04 05:23:00,
2013-02-03 21:28:00,42.0,39.3,31.08,SSW,202,0.0,0.0,90,0.00,,,0.00,VWS V14.00,2013-02-04 05:28:00,
2013-02-03 21:33:00,42.0,39.3,31.07,SSW,202,0.0,0.0,90,0.00,,,0.00,VWS V14.00,2013-02-04 05:33:00,
2013-02-03 21:38:00,42.0,39.3,31.07,SSW,202,0.0,0.0,90,0.00,,,0.00,VWS V14.00,2013-02-04 05:38:00,
2013-02-03 21:43:00,41.9,39.2,31.07,SSW,202,0.0,0.0,90,0.00,,,0.00,VWS V14.00,2013-02-04 05:43:00,
2013-02-03 21:48:00,41.7,39.0,31.06,SSW,202,0.0,0.0,90,0.00,,,0.00,VWS V14.00,2013-02-04 05:48:00,
2013-02-03 21:53:00,41.5,38.8,31.06,SSW,202,0.0,0.0,90,0.00,,,0.00,VWS V14.00,2013-02-04 05:53:00,
2013-02-03 21:58:00,41.5,38.8,31.06,SSW,202,0.0,0.0,90,0.00,,,0.00,VWS V14.00,2013-02-04 05:58:00,
2013-02-03 22:03:00,41.5,38.8,31.06,SSW,202,0.0,0.0,90,0.00,,,0.00,VWS V14.00,2013-02-04 06:03:00,
2013-02-03 22:08:00,41.5,38.8,31.06,SSW,202,0.0,0.0,90,0.00,,,0.00,VWS V14.00,2013-02-04 06:08:00,
2013-02-03 22:13:00,41.5,38.8,31.07,SSW,202,0.0,0.0,90,0.00,,,0.00,VWS V14.00,2013-02-04 06:13:00,
2013-02-03 22:18:00,41.5,38.8,31.06,SSW,202,0.0,0.0,90,0.00,,,0.00,VWS V14.00,2013-02-04 06:18:00,
2013-02-03 22:23:00,41.5,38.8,31.06,SSW,202,0.0,0.0,90,0.00,,,0.00,VWS V14.00,2013-02-04 06:23:00,
2013-02-03 22:28:00,41.5,38.8,31.06,SSW,202,0.0,0.0,90,0.00,,,0.00,VWS V14.00,2013-02-04 06:28:00,
2013-02-03 22:33:00,41.5,38.8,31.06,SSW,202,0.0,0.0,90,0.00,,,0.00,VWS V14.00,2013-02-04 06:33:00,
2013-02-03 22:38:00,41.5,38.8,31.06,SSW,202,0.0,0.0,90,0.00,,,0.00,VWS V14.00,2013-02-04 06:38:00,
2013-02-03 22:43:00,41.5,38.8,31.06,North,0,0.0,0.0,90,0.00,,,0.00,VWS V14.00,2013-02-04 06:43:00,
2013-02-03 22:48:00,41.7,39.0,31.06,SSW,202,0.0,0.0,90,0.00,,,0.00,VWS V14.00,2013-02-04 06:48:00,
2013-02-03 22:53:00,41.7,39.0,31.06,SSW,202,0.0,0.0,90,0.00,,,0.00,VWS V14.00,2013-02-04 06:53:00,
2013-02-03 22:58:00,41.7,39.0,31.06,SSW,202,0.0,0.0,90,0.00,,,0.00,VWS V14.00,2013-02-04 06:58:00,
2013-02-03 23:03:00,41.7,39.0,31.06,North,0,0.0,0.0,90,0.00,,,0.00,VWS V14.00,2013-02-04 07:03:00,
2013-02-03 23:08:00,41.5,38.8,31.05,SSW,202,0.0,0.0,90,0.00,,,0.00,VWS V14.00,2013-02-04 07:08:00,
2013-02-03 23:13:00,41.5,38.8,31.06,SSW,202,0.0,0.0,90,0.00,,,0.00,VWS V14.00,2013-02-04 07:13:00,
2013-02-03 23:18:00,41.5,38.8,31.06,SSW,202,0.0,0.0,90,0.00,,,0.00,VWS V14.00,2013-02-04 07:18:00,
2013-02-03 23:23:00,41.7,39.0,31.06,SSW,202,0.0,0.0,90,0.00,,,0.00,VWS V14.00,2013-02-04 07:23:00,
2013-02-03 23:28:00,41.7,39.0,31.06,SSW,202,0.0,0.0,90,0.00,,,0.00,VWS V14.00,2013-02-04 07:28:00,
2013-02-03 23:33:00,41.7,39.0,31.06,SSW,202,0.0,0.0,90,0.00,,,0.00,VWS V14.00,2013-02-04 07:33:00,
2013-02-03 23:38:00,41.7,39.0,31.06,SSW,202,0.0,0.0,90,0.00,,,0.00,VWS V14.00,2013-02-04 07:38:00,
2013-02-03 23:43:00,41.5,38.8,31.06,SSW,202,0.0,0.0,90,0.00,,,0.00,VWS V14.00,2013-02-04 07:43:00,
2013-02-03 23:48:00,41.5,38.8,31.05,SSW,202,0.0,0.0,90,0.00,,,0.00,VWS V14.00,2013-02-04 07:48:00,
2013-02-03 23:53:00,41.5,38.8,31.05,SSW,202,0.0,0.0,90,0.00,,,0.00,VWS V14.00,2013-02-04 07:53:00,
2013-02-03 23:58:00,41.5,38.8,31.05,SSW,202,0.0,0.0,90,0.00,,,0.00,VWS V14.00,2013-02-04 07:58:00,